TimeCST,TemperatureF,Dew PointF,Humidity,Sea Level PressureIn,VisibilityMPH,Wind Direction,Wind SpeedMPH,Gust SpeedMPH,PrecipitationIn,Events,Conditions,WindDirDegrees,DateUTC
12:51 AM,51.1,44.1,77,30.14,7.0,South,5.8,-,N/A,,Clear,180,2012-11-22 06:51:00
1:51 AM,50.0,44.1,80,30.12,7.0,South,5.8,-,N/A,,Clear,170,2012-11-22 07:51:00
2:51 AM,50.0,44.1,80,30.12,7.0,South,5.8,-,N/A,,Clear,170,2012-11-22 08:51:00
3:51 AM,50.0,44.1,80,30.09,7.0,SSE,8.1,-,N/A,,Partly Cloudy,160,2012-11-22 09:51:00
4:51 AM,48.9,43.0,80,30.09,7.0,South,8.1,-,N/A,,Partly Cloudy,180,2012-11-22 10:51:00
5:51 AM,48.9,43.0,80,30.08,7.0,South,6.9,-,N/A,,Scattered Clouds,180,2012-11-22 11:51:00
6:51 AM,48.0,43.0,83,30.08,6.0,South,4.6,-,N/A,,Haze,180,2012-11-22 12:51:00
7:51 AM,50.0,44.1,80,30.08,6.0,South,9.2,-,N/A,,Haze,180,2012-11-22 13:51:00
8:51 AM,53.1,44.1,71,30.06,6.0,South,5.8,-,N/A,,Haze,180,2012-11-22 14:51:00
10:51 AM,62.1,43.0,50,30.04,10.0,South,11.5,-,N/A,,Mostly Cloudy,180,2012-11-22 16:51:00
11:51 AM,66.0,41.0,40,30.01,10.0,SSW,11.5,-,N/A,,Mostly Cloudy,200,2012-11-22 17:51:00
12:51 PM,68.0,41.0,37,29.97,10.0,SSW,11.5,20.7,N/A,,Mostly Cloudy,200,2012-11-22 18:51:00
2:51 PM,68.0,43.0,40,29.93,10.0,SSW,13.8,23.0,N/A,,Mostly Cloudy,210,2012-11-22 20:51:00
3:51 PM,66.9,44.1,44,29.93,10.0,South,11.5,-,N/A,,Mostly Cloudy,180,2012-11-22 21:51:00
4:51 PM,66.0,43.0,43,29.94,10.0,South,11.5,-,N/A,,Overcast,190,2012-11-22 22:51:00
5:51 PM,66.0,44.1,45,29.96,10.0,SSW,10.4,-,N/A,,Overcast,210,2012-11-22 23:51:00
6:51 PM,63.0,48.0,58,29.98,6.0,SW,18.4,28.8,0.01,Rain,Light Rain,220,2012-11-23 00:51:00
7:51 PM,59.0,51.1,75,30.00,5.0,SW,16.1,-,0.06,Rain,Light Rain,230,2012-11-23 01:51:00
8:51 PM,57.9,52.0,81,30.00,7.0,SW,13.8,21.9,0.02,,Overcast,220,2012-11-23 02:51:00
9:51 PM,57.9,51.1,78,30.02,10.0,WSW,16.1,-,N/A,,Overcast,240,2012-11-23 03:51:00
10:51 PM,57.9,51.1,78,30.04,10.0,West,11.5,-,N/A,,Overcast,260,2012-11-23 04:51:00
11:51 PM,55.0,42.1,62,30.08,10.0,NW,16.1,23.0,N/A,,Mostly Cloudy,320,2012-11-23 05:51:00